sat.trackr.live / text

‹ back to catalog

STARLINK-35643

NORAD 66456 · 2025-262A

PAYLOAD ACTIVE UNKNOWN

§ Identity

Operator
Country
US
Launch date
2025-11-15
Launch site
AFETR
Launch vehicle
Mass (kg)
RCS (m²)

Purposes: comms

External: N2YO · Heavens-Above · Gunter

§ Orbital elements

Epoch: 2026-09-20T11:34:06.422592Z

Period
94.27 min
Inclination
42.9993°
Eccentricity
0.0000215
Mean motion
15.27573718 rev/d
Perigee alt
482.9 km
Apogee alt
483.2 km
Semi-major
6,861.2 km
B*
3.0838e-4
RAAN
276.4131°
Arg perigee
33.9789°
Mean anomaly
326.1076°
Rev number
4,869

§ Raw data

STARLINK-356431 66456U 25262A   26263.48201878  .00008232  00000+0  30838-3 0  99902 66456  42.9993 276.4131 0000215  33.9789 326.1076 15.27573718 48694

JSON: /api/v1/satellites/66456 · /tle

For live sub-satellite position, see the globe view (requires WebGL).

§ Visibility from observer

Set your observer location to see the next 7 days of passes ≥ 10°. The values pass through the URL so the page stays shareable.

No JS? Fill the form by hand. The geolocation button needs JavaScript.